Weather History for Hurlburt Field, FL

Change the Weather History Date:

Friday, November 15, 2013

  Actual Average Record
Temperature  
Mean Temperature 62 °F -  
Max Temperature 69 °F 69 °F 80 °F (2005)
Min Temperature 56 °F 50 °F 39 °F (2000)
Degree Days  
Heating Degree Days 2    
Growing Degree Days 12 (Base 50)    
Moisture  
Dew Point 58 °F    
Average Humidity 78    
Maximum Humidity 88    
Minimum Humidity 66    
Precipitation  
Precipitation 0.00 in - - ()
Sea Level Pressure  
Sea Level Pressure 30.09 in    
Wind  
Wind Speed 10 mph (East)    
Max Wind Speed 14 mph    
Max Gust Speed 22 mph    
Visibility 10 miles    
Events Rain    
Averages and records for this station are not official NWS values.
T = Trace of Precipitation, MM = Missing Value Source: NWS Daily Summary

Daily Weather History Graph

Daily Weather History Graph

Search for Another Location

Airport:

Trip Planner

Search our weather history database for the weather conditions in past years. The results will help you decide how hot, cold, wet, or windy it might be!

Date:

Astronomy

Nov. 15, 2013 Rise Set
Actual Time 6:12 AM CST 4:49 PM CST
Civil Twilight 5:47 AM CST 5:15 PM CST
Nautical Twilight 5:18 AM CST 5:44 PM CST
Astronomical Twilight 4:49 AM CST 6:12 PM CST
Moon 3:40 PM CST (11/15) 4:15 AM CST (11/15)
Length of Visible Light 11h 27m
Length of Day
10h 36m
Waxing Gibbous, 96% of the Moon is Illuminated
Nov 15
Waxing Gibbous
Nov 17
Full
Nov 25
Last Quarter
Dec 2
New
Dec 9
First Quarter

Hourly Weather History & Observations

Time (CST) Temp. Dew Point Humidity Pressure Visibility Wind Dir Wind Speed Gust Speed Precip Events Conditions
12:58 AM 58.1 °F 46.9 °F 66% 30.16 in 10.0 mi East 9.2 mph - N/A   Partly Cloudy
1:58 AM 57.6 °F 47.7 °F 70% 30.15 in 10.0 mi East 8.1 mph - N/A   Overcast
2:58 AM 57.2 °F 47.8 °F 71% 30.15 in 10.0 mi East 8.1 mph - N/A   Overcast
3:58 AM 57.4 °F 48.9 °F 73% 30.16 in 10.0 mi East 9.2 mph - N/A   Overcast
4:19 AM 57.2 °F 50.0 °F 77% 30.14 in 10.0 mi East 12.7 mph - N/A   Light Drizzle
4:28 AM 57.2 °F 50.0 °F 77% 30.14 in 10.0 mi East 11.5 mph - N/A   Overcast
4:31 AM 57.2 °F 50.0 °F 77% 30.14 in 10.0 mi East 12.7 mph - N/A   Light Drizzle
4:48 AM 57.2 °F 50.0 °F 77% 30.14 in 10.0 mi East 11.5 mph - N/A   Overcast
4:58 AM 57.6 °F 50.5 °F 77% 30.15 in 10.0 mi East 12.7 mph - 0.00 in   Overcast
4:59 AM 57.2 °F 50.0 °F 77% 30.14 in 10.0 mi East 11.5 mph - N/A   Light Drizzle
5:58 AM 56.7 °F 52.0 °F 84% 30.15 in 10.0 mi East 11.5 mph - 0.00 in   Light Drizzle
5:59 AM 57.2 °F 51.8 °F 82% 30.14 in 10.0 mi East 10.4 mph - N/A   Overcast
6:58 AM 57.4 °F 52.7 °F 84% 30.14 in 10.0 mi East 8.1 mph - 0.00 in   Mostly Cloudy
7:21 AM 59.0 °F 53.6 °F 82% 30.13 in 10.0 mi East 10.4 mph - N/A   Light Drizzle
7:31 AM 59.0 °F 53.6 °F 82% 30.13 in 10.0 mi East 11.5 mph - N/A   Mostly Cloudy
7:58 AM 58.6 °F 53.8 °F 84% 30.14 in 10.0 mi East 9.2 mph - 0.00 in   Scattered Clouds
8:58 AM 59.7 °F 54.7 °F 83% 30.16 in 10.0 mi East 10.4 mph - N/A   Mostly Cloudy
9:43 AM 60.8 °F 55.4 °F 82% 30.14 in 10.0 mi East 8.1 mph - N/A   Overcast
9:58 AM 61.2 °F 55.6 °F 82% 30.15 in 10.0 mi East 5.8 mph - N/A   Overcast
10:58 AM 66.7 °F 60.8 °F 81% 30.11 in 10.0 mi ESE 13.8 mph 17.3 mph N/A   Overcast
11:04 AM 66.2 °F 60.8 °F 83% 30.10 in 10.0 mi ESE 12.7 mph 17.3 mph N/A   Light Drizzle
11:30 AM 68.0 °F 60.8 °F 78% 30.09 in 10.0 mi ESE 11.5 mph 20.7 mph N/A   Overcast
11:58 AM 68.0 °F 60.6 °F 77% 30.09 in 10.0 mi ESE 12.7 mph 19.6 mph 0.00 in   Overcast
12:26 PM 68.0 °F 60.8 °F 78% 30.07 in 10.0 mi ESE 10.4 mph - N/A   Light Drizzle
12:42 PM 68.0 °F 60.8 °F 78% 30.06 in 10.0 mi ESE 8.1 mph - N/A   Overcast
12:58 PM 68.5 °F 61.5 °F 78% 30.07 in 10.0 mi ESE 10.4 mph - 0.00 in   Overcast
1:08 PM 69.8 °F 60.8 °F 73% 30.05 in 10.0 mi East 11.5 mph 18.4 mph N/A   Overcast
1:13 PM 69.8 °F 60.8 °F 73% 30.05 in 10.0 mi ESE 12.7 mph 18.4 mph N/A   Overcast
1:27 PM 69.8 °F 60.8 °F 73% 30.05 in 10.0 mi ESE 10.4 mph 19.6 mph N/A Rain Light Rain
1:43 PM 69.8 °F 62.6 °F 78% 30.04 in 10.0 mi SE 12.7 mph 21.9 mph N/A   Overcast
1:53 PM 69.8 °F 62.6 °F 78% 30.03 in 10.0 mi SE 12.7 mph 20.7 mph N/A   Overcast
1:58 PM 69.4 °F 61.7 °F 76% 30.05 in 10.0 mi SE 12.7 mph 20.7 mph 0.00 in   Overcast
2:03 PM 69.8 °F 62.6 °F 78% 30.04 in 10.0 mi ESE 9.2 mph - N/A   Overcast
2:08 PM 69.8 °F 62.6 °F 78% 30.05 in 10.0 mi SE 10.4 mph - N/A   Overcast
2:13 PM 69.8 °F 62.6 °F 78% 30.05 in 10.0 mi SE 11.5 mph 18.4 mph N/A   Overcast
2:43 PM 69.8 °F 60.8 °F 73% 30.04 in 10.0 mi SE 12.7 mph 20.7 mph N/A   Overcast
2:58 PM 69.1 °F 61.0 °F 75% 30.04 in 10.0 mi ESE 11.5 mph - N/A   Overcast
3:08 PM 69.8 °F 60.8 °F 73% 30.03 in 10.0 mi ESE 10.4 mph - N/A   Overcast
3:18 PM 69.8 °F 60.8 °F 73% 30.03 in 10.0 mi ESE 10.4 mph - N/A   Mostly Cloudy
3:28 PM 69.8 °F 60.8 °F 73% 30.03 in 10.0 mi SE 10.4 mph - N/A   Mostly Cloudy
3:38 PM 69.8 °F 60.8 °F 73% 30.03 in 10.0 mi ESE 10.4 mph - N/A   Mostly Cloudy
3:43 PM 69.8 °F 60.8 °F 73% 30.03 in 10.0 mi SE 8.1 mph - N/A   Mostly Cloudy
3:58 PM 68.7 °F 60.3 °F 74% 30.04 in 10.0 mi SE 12.7 mph - N/A   Mostly Cloudy
4:08 PM 69.8 °F 59.0 °F 68% 30.03 in 10.0 mi ESE 9.2 mph - N/A   Mostly Cloudy
4:58 PM 68.4 °F 59.7 °F 74% 30.03 in 10.0 mi ESE 9.2 mph - N/A   Mostly Cloudy
5:53 PM 66.2 °F 60.8 °F 83% 30.05 in 10.0 mi East 6.9 mph - N/A   Mostly Cloudy
5:58 PM 66.9 °F 61.5 °F 83% 30.06 in 10.0 mi East 5.8 mph - N/A   Mostly Cloudy
6:08 PM 68.0 °F 60.8 °F 78% 30.05 in 10.0 mi ENE 6.9 mph - N/A   Overcast
6:58 PM 65.3 °F 60.4 °F 84% 30.08 in 10.0 mi ENE 6.9 mph - N/A   Overcast
7:13 PM 64.4 °F 60.8 °F 88% 30.08 in 10.0 mi ENE 5.8 mph - N/A   Overcast
7:58 PM 64.4 °F 59.2 °F 83% 30.09 in 10.0 mi ENE 4.6 mph - N/A   Mostly Cloudy
8:48 PM 64.4 °F 59.0 °F 83% 30.09 in 10.0 mi East 10.4 mph - N/A   Overcast
8:53 PM 64.4 °F 59.0 °F 83% 30.09 in 10.0 mi East 11.5 mph - N/A   Overcast
8:58 PM 64.6 °F 59.0 °F 82% 30.09 in 10.0 mi East 11.5 mph - N/A   Overcast
9:58 PM 63.3 °F 58.8 °F 85% 30.09 in 10.0 mi East 11.5 mph - N/A   Partly Cloudy
10:58 PM 62.4 °F 58.3 °F 86% 30.09 in 10.0 mi East 12.7 mph - N/A   Clear
11:58 PM 62.1 °F 58.1 °F 87% 30.09 in 10.0 mi East 10.4 mph - N/A   Overcast